Location: Blanot
(47.1713°N, 4.2340°E)
Time: 00:29:19
(UTC+00:00)

NPP - Pass Details

Date: 14 July 2020
Orbit: 826 x 828 km, 98.7° (Epoch: 03 August)

Event Time Altitude Azimuth Distance (km) Brightness Sun altitude
Rises 01:18:03 0° 17° (NNE) 3,377 8.5 -18.3°
Reaches altitude 10° 01:20:26 10° 20° (NNE) 2,439 7.4 -18.2°
Maximum altitude 01:25:48 63° 102° (ESE) 924 3.9 -17.8°
Enters shadow 01:28:51 26° 175° (S) 1,584 4.6 -17.6°
